Powrót do katalogu

NOAA 17 DEB

AktywnyPO
NORAD 48754·DEBRIS·🇺🇸 United States

Wystrzelony Jun 24, 2002 z Vandenberg Space Force Base

Loading…

Następne Przeloty (najbliższe 24 godziny)

TLE

ŚwieżeSource: Space-Track

Epoka: Sep 13, 2026, 03:10 UTC

1 48754U 02032CP  26256.13202908  .00010591  00000-0  15941-2 0  9999
2 48754  98.9330 326.3708 0010572 241.6870 118.3270 14.74614298287537

Śledź NOAA 17 DEB w czasie rzeczywistym z AllMySat

Download on the App Store